Location: Byszew
(52.1813°N, 19.2693°E)
Time: 05:09:07
(UTC+00:00)

AIST 2D - Pass Details

Date: 05 July 2022
Orbit: 433 x 443 km, 97.0° (Epoch: 17 August)

Event Time Altitude Azimuth Distance (km) Brightness Sun altitude
Rises 21:14:48 0° 4° (N) 2,432 ? -12.4°
Reaches altitude 10° 21:17:01 10° 352° (N) 1,559 ? -12.5°
Maximum altitude 21:19:52 27° 293° (WNW) 890 ? -12.7°
Drops below altitude 10° 21:22:42 10° 234° (SW) 1,554 ? -12.8°
Enters shadow 21:24:18 - 224° (SW) 2,172 ? -12.9°
